Location: Contre
(49.7477°N, 2.0963°E)
Time: 20:53:27
(UTC+00:00)

Meteor 2-12 Rocket - Pass Details

Date: 10 August 2024
Orbit: 936 x 957 km, 82.5° (Epoch: 07 September)

Event Time Altitude Azimuth Distance (km) Brightness Sun altitude
Rises 02:19:26 0° 338° (NNW) 3,612 7.9 -17.6°
Reaches altitude 10° 02:22:40 10° 322° (NW) 2,665 7.0 -17.3°
Maximum altitude 02:26:40 19° 280° (W) 2,106 6.0 -16.9°
Enters shadow 02:28:26 17° 259° (WSW) 2,225 5.9 -16.8°
